Volver al catálogo

COSMOS 88

ActivoMilitarLEO
NORAD 1586·PAYLOAD·🇷🇺 Russia

Lanzado Sep 18, 1965 desde Baikonur Cosmodrome

Loading…

Próximos Pases (próximas 24 horas)

TLE

ActualizadoSource: Space-Track

Época: Sep 14, 2026, 10:12 UTC

1 01586U 65073C   26257.42511623 -.00000073  00000-0  13730-3 0  9995
2 01586  56.0602 144.6653 0185859 287.0693 247.3343 12.43346988769591

Sigue COSMOS 88 en tiempo real con AllMySat

Download on the App Store